Date String (YYYY-MM-DD hh:mm:ss) UTC,Instrument flags,Ambient pressure (hPa),Sample flow (lpm),Bypass flow (lpm),Sample temperature (°C),Ambient temperature (°C),ASC tube jacket temperature (°C),LED temperature (°C),Box temperature (°C),Sample RH (%),Span deviation,Mass concentration (μg/m³),Mass concentration (μg/m³),Mass concentration (μg/m³)
DateTimeUTC,F1_M11,P_M11,Q1_M11,Q2_M11,T1_M11,T2_M11,T3_M11,T4_M11,T5_M11,U1_M11,ZSPAN_M11,X0_M11,X2_M11,X1_M11
2022-11-04 11:00:00,,0821.8,5.01,0.00,22.5,20.9,00.0,31.4,24.4,15.0,0000.0,0007.08,0005.34,0005.22
2022-11-04 11:01:00,,0821.9,5.00,0.00,22.5,20.9,00.0,31.4,24.4,15.0,0000.0,0007.22,0005.39,0005.25
2022-11-04 11:02:00,,0822.0,5.00,0.00,22.5,20.9,00.0,31.4,24.3,15.0,0000.0,0007.44,0005.43,0005.29
2022-11-04 11:03:00,,0822.0,5.00,0.00,22.5,20.9,00.0,31.4,24.3,15.0,0000.0,0007.45,0005.45,0005.31
2022-11-04 11:04:00,,0822.0,4.99,0.00,22.5,20.9,00.0,31.4,24.3,15.1,0000.0,0007.42,0005.44,0005.31
2022-11-04 11:05:00,,0822.0,5.01,0.00,22.5,20.9,00.0,31.3,24.3,15.1,0000.0,0007.47,0005.44,0005.30
2022-11-04 11:06:00,,0822.0,5.00,0.00,22.4,20.9,00.0,31.3,24.3,15.1,0000.0,0007.44,0005.41,0005.27
2022-11-04 11:07:00,,0821.9,4.99,0.00,22.5,21.0,00.0,31.3,24.3,15.1,0000.0,0007.44,0005.41,0005.26
2022-11-04 11:08:00,,0821.9,5.00,0.00,22.5,21.6,00.0,31.3,24.5,15.1,0000.0,0007.53,0005.45,0005.27
2022-11-04 11:09:00,,0821.9,5.00,0.00,22.6,22.3,00.0,31.3,24.7,15.0,0000.0,0007.62,0005.50,0005.29
2022-11-04 11:10:00,,0821.9,4.99,0.00,22.7,22.1,00.0,31.3,24.7,14.9,0000.0,0007.65,0005.52,0005.30
2022-11-04 11:11:00,,0822.0,4.99,0.00,22.7,21.9,00.0,31.3,24.7,14.9,0000.0,0007.65,0005.52,0005.29
2022-11-04 11:12:00,,0822.2,5.02,0.00,22.7,21.6,00.0,31.4,24.6,14.9,0000.0,0007.60,0005.50,0005.29
2022-11-04 11:13:00,,0822.2,5.01,0.00,22.6,21.5,00.0,31.4,24.6,14.9,0000.0,0007.49,0005.50,0005.29
2022-11-04 11:14:00,,0822.2,4.98,0.00,22.6,21.4,00.0,31.4,24.6,14.9,0000.0,0007.55,0005.54,0005.31
2022-11-04 11:15:00,,0821.9,5.02,0.00,22.6,21.4,00.0,31.4,24.6,14.9,0000.0,0007.58,0005.56,0005.33
2022-11-04 11:16:00,,0821.9,5.00,0.00,22.6,21.4,00.0,31.4,24.5,14.9,0000.0,0007.52,0005.56,0005.34
2022-11-04 11:17:00,,0822.0,4.98,0.00,22.6,21.3,00.0,31.4,24.5,14.9,0000.0,0007.72,0005.56,0005.34
2022-11-04 11:18:00,,0821.9,5.01,0.00,22.6,21.2,00.0,31.4,24.5,15.0,0000.0,0007.90,0005.53,0005.31
2022-11-04 11:19:00,,0822.0,5.00,0.00,22.6,21.1,00.0,31.4,24.5,15.0,0000.0,0007.79,0005.47,0005.28
2022-11-04 11:20:00,,0821.9,5.00,0.00,22.6,21.0,00.0,31.4,24.5,15.0,0000.0,0007.69,0005.42,0005.27
2022-11-04 11:21:00,,0821.9,4.99,0.00,22.6,21.0,00.0,31.4,24.4,15.0,0000.0,0007.71,0005.42,0005.27
2022-11-04 11:22:00,,0821.8,5.00,0.00,22.6,21.0,00.0,31.4,24.4,15.0,0000.0,0007.80,0005.46,0005.30
2022-11-04 11:23:00,,0822.0,5.01,0.00,22.5,20.9,00.0,31.3,24.4,15.0,0000.0,0007.80,0005.46,0005.30
2022-11-04 11:24:00,,0822.1,5.00,0.00,22.5,20.9,00.0,31.3,24.4,15.1,0000.0,0007.81,0005.47,0005.30
2022-11-04 11:25:00,,0821.9,5.00,0.00,22.5,20.8,00.0,31.3,24.4,15.1,0000.0,0007.86,0005.47,0005.30
2022-11-04 11:26:00,,0822.0,5.00,0.00,22.5,20.8,00.0,31.3,24.4,15.1,0000.0,0007.90,0005.50,0005.32
2022-11-04 11:27:00,,0822.2,5.00,0.00,22.5,20.8,00.0,31.3,24.4,15.1,0000.0,0008.00,0005.54,0005.33
2022-11-04 11:28:00,,0822.0,5.00,0.00,22.5,20.8,00.0,31.3,24.3,15.2,0000.0,0007.87,0005.54,0005.34
2022-11-04 11:29:00,,0821.9,5.00,0.00,22.5,20.9,00.0,31.3,24.3,15.2,0000.0,0007.65,0005.57,0005.36
2022-11-04 11:30:00,,0822.0,5.00,0.00,22.4,20.9,00.0,31.3,24.3,15.2,0000.0,0007.65,0005.58,0005.37
2022-11-04 11:31:00,,0822.0,4.99,0.00,22.4,20.9,00.0,31.3,24.3,15.2,0000.0,0007.76,0005.65,0005.39
2022-11-04 11:32:00,,0822.0,5.00,0.00,22.4,20.9,00.0,31.3,24.3,15.2,0000.0,0007.81,0005.68,0005.41
2022-11-04 11:33:00,,0821.9,5.01,0.00,22.4,20.9,00.0,31.3,24.3,15.2,0000.0,0007.74,0005.66,0005.41
2022-11-04 11:34:00,,0821.9,5.01,0.00,22.4,20.9,00.0,31.3,24.3,15.2,0000.0,0007.76,0005.68,0005.43
2022-11-04 11:35:00,,0821.9,5.00,0.00,22.4,20.8,00.0,31.2,24.3,15.2,0000.0,0007.77,0005.71,0005.46
2022-11-04 11:36:00,,0821.9,5.00,0.00,22.4,20.8,00.0,31.2,24.3,15.2,0000.0,0007.71,0005.72,0005.50
2022-11-04 11:37:00,,0822.0,5.00,0.00,22.4,20.8,00.0,31.2,24.3,15.3,0000.0,0007.69,0005.73,0005.51
2022-11-04 11:38:00,,0822.1,5.00,0.00,22.4,20.8,00.0,31.2,24.2,15.3,0000.0,0007.67,0005.74,0005.55
2022-11-04 11:39:00,,0822.1,5.01,0.00,22.4,20.9,00.0,31.2,24.2,15.3,0000.0,0007.76,0005.83,0005.63
2022-11-04 11:40:00,,0822.1,4.98,0.00,22.4,20.9,00.0,31.2,24.2,15.3,0000.0,0007.83,0005.91,0005.70
2022-11-04 11:41:00,,0822.1,5.01,0.00,22.4,20.9,00.0,31.2,24.2,15.3,0000.0,0007.97,0006.00,0005.76
2022-11-04 11:42:00,,0822.1,5.02,0.00,22.4,21.6,00.0,31.2,24.4,15.3,0000.0,0008.08,0006.07,0005.85
2022-11-04 11:43:00,,0822.1,5.00,0.00,22.5,22.2,00.0,31.2,24.6,15.3,0000.0,0008.23,0006.16,0005.91
2022-11-04 11:44:00,,0822.0,4.99,0.00,22.6,22.2,00.0,31.2,24.6,15.2,0000.0,0008.33,0006.24,0005.98
2022-11-04 11:45:00,,0822.1,5.01,0.00,22.6,22.0,00.0,31.2,24.6,15.2,0000.0,0008.41,0006.32,0006.05
2022-11-04 11:46:00,,0822.1,5.01,0.00,22.6,21.8,00.0,31.3,24.6,15.2,0000.0,0008.49,0006.38,0006.11
2022-11-04 11:47:00,,0822.1,4.99,0.00,22.6,21.7,00.0,31.3,24.6,15.2,0000.0,0008.54,0006.41,0006.14
2022-11-04 11:48:00,,0822.1,5.02,0.00,22.6,21.6,00.0,31.3,24.5,15.2,0000.0,0008.57,0006.43,0006.16
2022-11-04 11:49:00,,0822.1,4.99,0.00,22.6,21.6,00.0,31.3,24.5,15.2,0000.0,0008.60,0006.45,0006.19
2022-11-04 11:50:00,,0822.2,5.00,0.00,22.6,21.5,00.0,31.4,24.5,15.2,0000.0,0008.70,0006.47,0006.17
2022-11-04 11:51:00,,0822.1,5.01,0.00,22.6,21.5,00.0,31.4,24.5,15.2,-000.2,0008.69,0006.44,0006.15
2022-11-04 11:52:00,,0822.1,4.99,0.00,22.6,21.5,00.0,31.4,24.5,15.2,-000.5,0008.65,0006.43,0006.14
2022-11-04 11:53:00,,0822.1,5.00,0.00,22.6,21.4,00.0,31.4,24.5,15.2,0000.0,0008.51,0006.36,0006.09
2022-11-04 11:54:00,,0822.1,5.00,0.00,22.6,21.4,00.0,31.4,24.5,15.2,0000.0,0008.42,0006.30,0006.04
2022-11-04 11:55:00,,0822.2,5.00,0.00,22.6,21.4,00.0,31.4,24.5,15.2,0000.0,0008.37,0006.24,0006.00
2022-11-04 11:56:00,,0822.2,5.01,0.00,22.6,21.4,00.0,31.4,24.5,15.2,0000.0,0008.36,0006.20,0005.94
2022-11-04 11:57:00,,0822.2,4.98,0.00,22.6,21.4,00.0,31.4,24.5,15.2,0000.0,0008.29,0006.16,0005.90
2022-11-04 11:58:00,,0822.2,5.00,0.00,22.6,21.4,00.0,31.4,24.5,15.2,0000.0,0008.23,0006.12,0005.88
2022-11-04 11:59:00,,0822.2,5.01,0.00,22.6,21.4,00.0,31.4,24.5,15.2,0000.0,0008.24,0006.13,0005.87
